TimeEST,TemperatureF,Dew PointF,Humidity,Sea Level PressureIn,VisibilityMPH,Wind Direction,Wind SpeedMPH,Gust SpeedMPH,PrecipitationIn,Events,Conditions,WindDirDegrees,DateUTC
12:56 AM,46.0,44.1,93,30.32,10.0,NNE,19.6,27.6,N/A,,Overcast,20,2012-11-14 05:56:00
1:56 AM,46.0,44.1,93,30.33,10.0,NNE,16.1,24.2,N/A,,Overcast,20,2012-11-14 06:56:00
2:27 AM,46.4,44.6,93,30.32,10.0,North,16.1,23.0,N/A,,Overcast,10,2012-11-14 07:27:00
2:56 AM,46.0,43.0,89,30.32,10.0,NNE,17.3,24.2,N/A,,Overcast,20,2012-11-14 07:56:00
3:56 AM,46.0,43.0,89,30.32,10.0,NNE,19.6,29.9,N/A,,Overcast,20,2012-11-14 08:56:00
4:21 AM,46.4,42.8,87,30.32,10.0,NNE,20.7,31.1,N/A,,Overcast,20,2012-11-14 09:21:00
4:56 AM,46.0,42.1,86,30.33,10.0,NNE,15.0,27.6,N/A,,Overcast,20,2012-11-14 09:56:00
5:56 AM,46.9,41.0,80,30.35,10.0,NNE,13.8,24.2,N/A,,Overcast,20,2012-11-14 10:56:00
6:56 AM,46.9,42.1,83,30.35,10.0,NNE,12.7,20.7,N/A,,Overcast,20,2012-11-14 11:56:00
7:56 AM,48.0,43.0,83,30.36,9.0,NNE,18.4,25.3,N/A,,Overcast,20,2012-11-14 12:56:00
8:23 AM,48.2,44.6,87,30.36,8.0,NNE,17.3,24.2,N/A,,Overcast,20,2012-11-14 13:23:00
9:04 AM,48.2,44.6,87,30.37,8.0,North,17.3,-,N/A,,Unknown,10,2012-11-14 14:04:00
9:34 AM,48.2,44.6,87,30.38,8.0,North,15.0,24.2,N/A,,Overcast,10,2012-11-14 14:34:00
9:56 AM,48.9,45.0,86,30.38,8.0,NNE,13.8,24.2,N/A,,Overcast,20,2012-11-14 14:56:00
10:56 AM,50.0,45.0,83,30.38,8.0,North,15.0,24.2,N/A,,Overcast,10,2012-11-14 15:56:00
11:56 AM,51.1,46.0,83,30.37,10.0,North,20.7,26.5,N/A,,Overcast,10,2012-11-14 16:56:00
12:41 PM,51.8,46.4,82,30.34,10.0,NNE,19.6,-,N/A,,Overcast,20,2012-11-14 17:41:00
12:56 PM,52.0,46.0,80,30.34,10.0,NNE,19.6,31.1,N/A,,Overcast,20,2012-11-14 17:56:00
1:56 PM,52.0,45.0,77,30.34,10.0,North,13.8,24.2,N/A,,Overcast,360,2012-11-14 18:56:00
2:53 PM,50.0,44.6,82,30.32,8.0,North,16.1,23.0,N/A,,Overcast,10,2012-11-14 19:53:00
2:56 PM,50.0,45.0,83,30.32,8.0,North,17.3,-,N/A,,Overcast,10,2012-11-14 19:56:00
3:56 PM,50.0,45.0,83,30.32,10.0,NNE,16.1,25.3,N/A,,Overcast,20,2012-11-14 20:56:00
4:56 PM,48.9,45.0,86,30.32,10.0,NNE,18.4,31.1,N/A,,Overcast,20,2012-11-14 21:56:00
5:26 PM,48.2,44.6,87,30.33,10.0,NNE,15.0,23.0,N/A,,Overcast,20,2012-11-14 22:26:00
5:56 PM,48.9,44.1,83,30.34,10.0,NNE,15.0,23.0,N/A,,Overcast,20,2012-11-14 22:56:00
6:56 PM,48.9,43.0,80,30.34,10.0,NNE,16.1,21.9,N/A,,Overcast,20,2012-11-14 23:56:00
7:56 PM,48.0,42.1,80,30.33,10.0,NNE,17.3,25.3,N/A,,Overcast,30,2012-11-15 00:56:00
8:51 PM,46.4,41.0,81,30.34,10.0,NNE,16.1,21.9,N/A,,Scattered Clouds,20,2012-11-15 01:51:00
8:56 PM,46.9,41.0,80,30.34,10.0,NNE,13.8,23.0,N/A,,Partly Cloudy,20,2012-11-15 01:56:00
9:56 PM,46.9,41.0,80,30.33,10.0,NNE,15.0,-,N/A,,Clear,20,2012-11-15 02:56:00
10:56 PM,46.0,41.0,83,30.32,10.0,NNE,12.7,-,N/A,,Mostly Cloudy,20,2012-11-15 03:56:00
11:56 PM,46.0,41.0,83,30.30,10.0,NNE,13.8,-,N/A,,Clear,20,2012-11-15 04:56:00